{"data":{"norad_id":64032,"intl_designator":"2025-102L","name":"STARLINK-34019","alt_names":[],"object_type":"PAYLOAD","status":"ACTIVE","operator":null,"country":"US","launch_date":"2025-05-16","launch_site_code":"AFWTR","launch_vehicle":null,"mission":null,"orbit_class":"UNKNOWN","rcs_meters":null,"size_class":null,"mass_kg":null,"dimensions":null,"purposes":["comms"],"wikipedia_slug":null,"has_3d_model":false,"image_url":null,"decayed_at":null,"tle_current":{"epoch":"2026-05-25T02:50:51.488736Z","epoch_age_seconds":74912,"freshness":"FRESH","line1":"1 64032U 25102L   26145.11865149  .00002731  00000+0  23652-3 0  9991","line2":"2 64032  70.0003 281.6184 0002869 266.0797  94.0034 14.98335196 57415","mean_motion":14.98335196,"eccentricity":0.0002869,"inclination_deg":70.0003,"raan_deg":281.6184,"arg_perigee_deg":266.0797,"mean_anomaly_deg":94.0034,"bstar":0.00023652,"rev_number":5741,"period_min":96.106665841146,"perigee_km":570.04581705901,"apogee_km":574.03382851993,"semimajor_km":6950.1768227895,"source":"CELESTRAK","updated_at":"2026-05-25T13:38:20.226390Z"}}}